Location: Recife
(8.0585°S, 34.8848°W)
Time: 11:29:40
(UTC-03:00)

Vanguard 2 Rocket - Pass Details

Date: 21 April 2026
Orbit: 553 x 3286 km, 32.9° (Epoch: 8 May)

Event Time Altitude Azimuth Distance (km) Brightness Sun altitude
Rises 16:31:44 0° 273° (W) 7,236 13.5 9.5°
Reaches altitude 10° 16:40:11 10° 292° (WNW) 5,978 13.6 7.5°
Maximum altitude 16:49:15 16° 322° (NW) 5,002 11.6 5.3°
Drops below altitude 10° 16:56:52 10° 354° (N) 4,856 10.9 3.5°
Sets 17:02:32 0° 16° (NNE) 5,294 10.8 2.1°
